Regional Weather Roundup
Issued by NWS

Home | Current Version | Previous Version | Graphics & Text | Print | Product List | Glossary On
Versions: 1 2 3 4 5 6 7 8 9 10 11 12 13 14 15 16 17 18 19 20 21 22 23 24 25 26 27 28 29 30 31 32 33 34 35 36 37 38 39 40 41 42 43 44 45 46 47 48 49 50
000
ASUS43 KFSD 250402
RWRSD

WEATHER ROUNDUP FOR SOUTH DAKOTA
NATIONAL WEATHER SERVICE SIOUX FALLS SD
1000 PM CST FRI NOV 24 2017

NOTE: "FAIR" INDICATES FEW OR NO CLOUDS BELOW 12,000 FEET WITH NO
SIGNIFICANT WEATHER AND/OR OBSTRUCTIONS TO VISIBILITY.


SDZ001>005-009-010-012>017-250500-
NORTHWEST AND NORTH CENTRAL SOUTH DAKOTA

CITY           SKY/WX    TMP DP  RH WIND       PRES   REMARKS
BUFFALO          N/A     32  26  78 W6        29.90R WCI  26
FAITH            N/A     35  30  82 W12       29.95R WCI  27
MOBRIDGE       CLEAR     32  27  81 NW6       29.88R WCI  26
$$

SDZ012>016-024>037-041>051-057-063-072>074-250500-
SOUTHWEST AND SOUTH CENTRAL SOUTH DAKOTA

CITY           SKY/WX    TMP DP  RH WIND       PRES   REMARKS
RAPID CTY ARPT CLEAR     31  22  69 NW8       29.99S WCI  23
PIERRE         CLEAR     38  34  85 W10       29.93S
CUSTER         CLEAR     28  15  58 CALM      30.00S
ELLSWORTH AFB  CLEAR     33  23  67 W6        29.98S WCI  27
PHILIP         CLEAR     33  29  85 W3        29.99R
PINE RIDGE     CLEAR     24  21  88 CALM      30.03R
SPEARFISH      FAIR      36  23  60 CALM      30.00R
WINNER         FAIR      38  30  73 W10       29.98R
$$

SDZ004>011-016>023-039-040-250500-
NORTHEAST SOUTH DAKOTA

CITY           SKY/WX    TMP DP  RH WIND       PRES   REMARKS
ABERDEEN       CLOUDY    40  32  73 W12       29.87S
WATERTOWN      CLOUDY    40  33  76 NW14      29.84R
BROOKINGS      PTCLDY    39  33  79 NW10      29.87R
SISSETON         N/A     45  32  60 NW20      29.81R
$$

SDZ017-020-022-023-036>040-048>070-250500-
SOUTHEAST SOUTH DAKOTA

CITY           SKY/WX    TMP DP  RH WIND       PRES   REMARKS
SIOUX FALLS    PTCLDY    42  34  73 NW9       29.89R
HURON          PTCLDY    36  32  85 NW8       29.90R
CHAMBERLAIN    PTCLDY    45  36  70 NW12G17   29.95R
MITCHELL       PTCLDY    39  33  79 NW10      29.92R
YANKTON        CLEAR     42  32  67 W9        29.92R
$$

ABBREVIATIONS USED IN REMARKS
   TC - TEMPERATURE IN CELSIUS
  WCI - WIND CHILL INDEX
   HX - HEAT INDEX
  VSB - VISIBILITY





USA.gov is the U.S. government's official web portal to all federal, state and local government web resources and services.